Location: Taukkyan
(23.1052°N, 94.0030°E)
Time: 07:33:18
(UTC+00:00)

NOSS 0 Rocket - Pass Details

Date: 06 July 2020
Orbit: 934 x 955 km, 70.0° (Epoch: 05 August)

Event Time Altitude Azimuth Distance (km) Brightness Sun altitude
Exits shadow 15:26:42 50° 16° (NNE) 1,178 4.5 -32.7°
Drops below altitude 10° 15:31:05 10° 18° (NNE) 2,646 6.6 -33.3°
Sets 15:33:37 0° 19° (NNE) 3,594 7.4 -33.7°
